Wind_Speed
13 13 13 13 13 12 11 10 10 10 10 9 9 8 8 8 8 8 8 8 8 7 6 6 6 6 5 5 5 5 6 6 6 6 6 6 6 6 6 6 7 7 7
15 15 14 14 14 13 12 12 12 11 11 11 11 10 9 10 10 10 9 9 9 8 7 7 7 7 7 6 6 6 6 7 7 7 7 7 7 7 7 7 7 7 8
16 16 15 15 14 14 13 13 13 12 12 13 13 12 11 10 10 10 10 9 9 9 9 8 8 7 8 8 7 7 7 7 7 8 8 8 7 8 8 8 8 8 7
17 17 16 16 15 15 14 14 14 13 13 12 13 13 11 11 11 10 10 9 9 9 10 9 9 9 9 8 8 7 7 7 7 8 9 9 8 8 8 8 7 7 8
17 17 18 17 17 17 16 15 14 13 13 13 13 13 12 11 11 11 10 10 10 10 11 11 10 10 9 9 9 9 8 8 8 9 9 10 10 10 9 8 8 8 8
18 18 18 18 18 17 16 16 15 14 14 13 12 13 13 12 12 11 11 11 11 11 11 12 12 11 11 10 10 9 9 9 9 9 10 10 10 10 9 9 9 9 9
18 18 18 18 18 18 17 17 16 15 15 14 13 13 13 14 13 12 12 12 11 11 11 11 12 12 11 10 10 11 10 10 10 10 11 11 11 10 10 11 11 10 10
18 17 17 18 18 18 18 17 16 16 16 15 14 14 14 15 14 13 13 13 13 12 11 11 11 11 11 11 11 11 11 11 10 11 11 10 10 10 11 12 12 11 11
19 18 19 19 19 19 18 18 17 17 16 16 15 15 15 15 15 15 15 15 15 14 13 12 12 12 12 13 12 12 12 11 11 11 12 11 11 11 11 12 13 13 13
21 20 20 20 20 20 19 19 18 18 17 17 17 16 16 16 16 16 16 17 16 16 15 14 14 14 14 14 14 14 13 13 13 13 12 12 12 13 13 13 14 15 15
22 21 21 21 21 20 20 19 19 18 18 18 18 18 18 17 18 18 17 17 17 16 16 15 15 15 15 15 15 15 15 14 14 14 14 14 14 14 14 15 16 16 17
21 21 21 21 21 21 20 20 20 20 20 20 20 20 20 19 19 18 18 18 17 17 16 15 15 15 16 16 16 16 16 15 15 16 15 16 15 16 16 16 17 17 17
21 21 21 21 21 21 21 21 21 21 21 21 21 21 21 21 20 19 19 19 19 19 19 18 18 18 17 17 17 17 16 16 17 17 17 17 18 18 18 18 18 18 18
21 21 21 22 22 22 22 22 22 23 23 23 23 23 23 22 22 21 20 20 20 20 20 20 20 19 19 19 18 18 18 18 19 18 18 19 19 19 19 19 19 18 18
21 21 22 23 23 23 23 23 24 24 24 24 24 24 23 23 23 23 22 22 21 21 21 20 21 21 20 20 20 19 19 20 20 20 20 20 19 20 20 20 20 20 20
22 22 22 23 24 24 24 24 25 25 25 25 24 24 24 24 24 24 24 24 23 23 22 22 22 22 21 21 21 21 21 21 22 21 21 21 22 21 21 22 22 22 22
22 21 21 23 24 25 26 26 26 26 26 26 25 25 26 27 27 26 26 25 24 24 24 24 24 24 24 23 23 23 23 23 22 22 21 22 21 22 22 23 24 24 24
22 22 23 24 25 26 26 27 27 27 27 27 27 28 28 28 28 27 27 26 26 25 25 25 26 25 25 25 24 25 25 25 24 24 23 23 23 24 24 25 25 26 26
23 23 23 24 25 25 26 27 28 28 28 28 29 29 29 29 29 28 27 27 27 26 26 26 26 26 26 26 26 26 27 27 26 25 25 24 24 24 25 26 27 27 27
25 25 25 24 24 25 25 27 28 28 28 27 28 28 28 28 29 29 28 28 27 27 27 27 27 26 26 26 27 27 28 27 27 27 26 26 26 27 27 28 28 28 28
25 25 25 25 25 25 25 26 27 28 28 27 26 27 27 27 28 28 28 29 29 29 28 27 27 27 27 27 26 26 27 27 28 28 28 28 28 29 29 29 29 29 30
25 25 25 25 25 24 24 25 25 25 26 26 26 26 26 28 28 27 27 28 28 28 27 27 27 27 28 28 27 28 28 28 29 29 29 29 29 29 30 30 30 30 30
26 26 25 25 25 24 24 23 24 24 25 25 26 26 27 28 28 28 27 27 27 27 27 27 27 27 27 28 28 28 29 29 29 29 29 29 29 30 30 31 31 31 31
26 26 25 24 24 24 24 23 23 24 25 25 26 26 27 27 28 27 27 26 27 28 28 28 28 28 28 28 29 29 29 30 30 30 30 30 30 31 31 31 31 31 32
23 24 24 24 24 24 23 24 24 24 24 25 25 25 25 25 25 26 27 27 28 29 28 29 29 29 29 29 29 30 30 30 31 31 31 31 30 31 30 31 31 32 32
23 23 23 24 25 25 25 25 24 25 25 25 25 24 24 25 25 26 27 28 29 30 30 30 29 29 29 29 30 30 30 30 30 30 30 30 30 30 30 31 31 32 32
Wind_Direction
263 268 271 274 278 283 285 283 280 282 281 277 275 276 280 283 284 290 291 286 281 282 282 280 281 282 284 285 282 279 278 275 275 278 282 282 278 275 274 277 277 273 272
261 267 271 273 274 277 279 281 280 277 275 275 272 269 273 277 280 285 285 280 278 276 276 277 276 277 280 282 282 277 273 273 277 277 279 286 278 271 274 279 279 277 273
262 265 266 268 270 274 277 281 281 278 276 273 269 268 270 274 276 280 284 280 275 270 271 275 271 273 279 281 282 281 274 275 276 276 276 281 279 278 278 280 276 277 278
263 265 266 267 270 272 274 277 278 279 279 277 270 269 267 270 274 277 280 279 274 268 269 270 271 270 275 280 282 281 281 281 280 275 278 280 279 279 284 281 278 280 278
262 264 265 267 268 270 272 273 276 278 278 278 272 266 265 268 270 274 277 275 272 269 271 267 267 267 273 278 280 281 281 283 280 279 278 277 277 276 279 281 280 281 280
262 263 263 265 266 268 269 271 274 276 276 276 271 265 264 264 267 271 274 274 271 271 273 272 272 273 273 276 281 281 284 282 281 278 275 278 281 281 277 278 277 278 277
261 263 264 264 266 268 268 269 269 272 274 274 272 267 267 264 265 269 274 275 274 273 277 272 276 272 271 277 281 286 285 283 280 276 279 282 281 281 278 276 277 277 276
260 262 263 263 266 268 267 267 268 270 272 273 273 271 273 270 268 270 272 273 276 279 280 278 278 279 280 280 285 285 281 279 279 278 281 284 286 286 282 278 277 278 278
260 261 261 263 266 267 267 268 268 268 269 269 270 272 273 271 270 269 268 268 270 274 278 279 280 281 280 283 285 283 284 278 278 277 280 282 281 283 283 282 281 279 279
260 260 261 261 262 263 265 267 267 267 266 266 266 266 268 268 270 270 268 268 268 271 274 276 277 279 281 283 283 281 285 282 279 278 280 281 280 280 280 282 283 281 279
261 260 260 259 260 262 263 264 264 264 267 267 266 265 266 267 269 271 270 269 266 267 270 272 275 276 277 280 282 283 285 282 278 280 280 280 280 281 283 281 281 281 280
261 260 259 257 258 259 261 261 262 263 266 267 267 266 266 267 268 269 269 269 268 266 267 271 274 276 277 277 279 282 280 275 276 278 280 280 281 281 283 284 282 281 280
261 258 256 255 258 259 260 260 261 263 265 267 267 267 266 265 266 265 265 266 268 267 266 268 273 274 275 276 276 277 275 275 276 278 280 281 282 283 283 285 285 282 280
263 259 254 253 256 258 259 259 261 262 265 267 268 268 266 264 264 262 264 265 267 267 266 267 271 272 272 273 273 272 272 273 276 279 279 281 280 281 283 284 285 284 281
260 258 255 253 254 257 259 259 260 262 265 267 268 266 264 263 262 261 263 266 268 269 270 269 269 269 270 271 272 271 272 272 275 277 278 279 279 280 281 282 282 281 280
258 258 257 258 258 258 259 260 260 261 263 265 265 263 261 262 261 261 264 267 268 269 270 270 270 268 269 270 270 271 272 272 272 274 276 277 280 279 278 278 280 281 280
258 258 258 258 259 260 261 261 260 261 261 262 263 262 262 263 262 262 264 266 268 268 269 269 268 267 268 268 269 271 274 274 273 274 276 277 277 278 278 278 278 278 279
260 261 260 261 262 262 262 264 262 261 263 264 263 261 261 262 261 261 263 264 267 268 269 269 269 269 268 267 269 272 274 276 274 275 276 277 278 279 279 280 279 279 279
260 261 261 262 263 263 262 263 262 262 263 265 266 264 261 261 260 261 263 264 266 267 268 268 267 269 268 268 270 272 272 275 276 276 276 277 279 280 281 281 281 281 281
261 262 263 264 264 263 263 264 263 263 264 266 264 263 262 261 261 262 264 264 267 268 268 268 267 268 268 269 271 273 273 274 274 275 275 276 278 279 280 280 281 283 284
263 264 264 265 266 265 264 264 263 263 263 264 262 261 260 260 260 261 263 265 267 268 267 267 270 270 269 269 270 272 274 274 274 274 276 278 280 279 279 281 282 283 283
263 264 264 264 265 265 264 263 262 261 262 263 262 261 261 260 259 261 264 265 266 266 264 266 269 270 269 269 271 273 274 275 275 275 276 278 279 279 280 281 283 283 283
262 263 264 264 264 264 263 262 259 259 262 262 262 262 262 261 260 261 263 264 265 264 265 267 268 270 271 272 273 274 274 274 275 276 277 278 280 280 281 281 281 281 282
261 261 262 263 262 263 263 263 263 263 263 263 263 263 264 263 262 261 262 263 264 263 264 266 268 270 271 273 274 274 274 275 276 277 277 279 279 280 280 280 281 282 283
262 262 261 260 260 260 263 264 264 265 265 266 266 264 264 265 264 262 261 263 265 264 265 267 269 270 271 273 273 274 274 275 276 277 278 279 280 280 281 281 281 282 283
260 260 260 260 261 262 263 265 266 266 266 265 265 265 264 263 263 264 264 264 266 267 268 270 271 271 271 272 274 275 276 276 276 278 279 280 281 282 282 282 281 282 283
Height
5888 5887 5887 5887 5886 5885 5884 5884 5882 5881 5880 5880 5879 5878 5878 5877 5876 5875 5874 5874 5873 5872 5871 5871 5870 5870 5869 5868 5868 5867 5867 5866 5866 5866 5866 5865 5865 5864 5864 5864 5863 5863 5863
5885 5884 5884 5884 5883 5883 5882 5881 5880 5879 5878 5877 5877 5876 5875 5875 5874 5873 5872 5871 5870 5870 5869 5869 5868 5868 5868 5867 5866 5866 5865 5865 5864 5864 5864 5864 5864 5863 5862 5862 5862 5861 5861
5882 5881 5881 5881 5880 5880 5879 5878 5877 5876 5875 5874 5874 5873 5873 5872 5871 5870 5870 5869 5868 5867 5867 5866 5866 5866 5866 5865 5865 5864 5864 5863 5863 5862 5863 5862 5862 5861 5861 5861 5860 5860 5859
5878 5878 5878 5877 5877 5876 5876 5875 5874 5873 5872 5871 5870 5870 5869 5869 5868 5867 5867 5866 5865 5865 5864 5864 5864 5864 5864 5864 5863 5863 5862 5862 5861 5861 5861 5860 5860 5860 5860 5859 5858 5858 5858
5874 5874 5874 5874 5873 5873 5872 5871 5871 5870 5869 5868 5867 5866 5866 5866 5865 5864 5864 5863 5863 5862 5862 5862 5862 5862 5862 5862 5861 5861 5860 5860 5859 5859 5859 5858 5858 5858 5858 5857 5857 5856 5856
5870 5870 5870 5870 5869 5869 5868 5868 5867 5867 5866 5865 5864 5863 5863 5863 5862 5861 5861 5860 5860 5860 5859 5859 5859 5859 5859 5859 5859 5859 5858 5858 5857 5857 5857 5856 5856 5856 5855 5855 5855 5854 5854
5866 5866 5866 5866 5865 5865 5864 5864 5864 5863 5862 5862 5861 5860 5860 5859 5858 5858 5858 5857 5857 5857 5857 5857 5856 5856 5856 5856 5856 5856 5856 5855 5855 5854 5854 5854 5853 5853 5853 5853 5852 5852 5851
5861 5862 5861 5861 5861 5861 5860 5860 5860 5859 5859 5858 5858 5857 5856 5855 5855 5854 5854 5854 5854 5854 5854 5853 5853 5853 5853 5853 5853 5853 5853 5852 5852 5852 5851 5851 5851 5850 5850 5850 5850 5849 5849
5857 5857 5857 5857 5856 5856 5856 5856 5855 5855 5855 5854 5854 5853 5853 5852 5852 5851 5851 5851 5851 5850 5850 5851 5850 5851 5850 5850 5850 5850 5850 5849 5849 5849 5848 5848 5848 5847 5847 5847 5846 5846 5845
5851 5851 5851 5851 5851 5851 5851 5851 5851 5851 5851 5850 5850 5849 5849 5849 5848 5847 5847 5847 5847 5847 5847 5847 5847 5847 5847 5847 5847 5846 5846 5845 5846 5845 5845 5845 5844 5844 5844 5843 5843 5842 5842
5845 5845 5845 5845 5846 5846 5846 5846 5846 5846 5846 5846 5845 5845 5845 5845 5844 5844 5844 5843 5843 5843 5844 5844 5844 5844 5844 5844 5843 5843 5842 5842 5842 5842 5842 5841 5841 5840 5840 5839 5839 5838 5838
5839 5839 5839 5839 5840 5840 5841 5841 5841 5841 5841 5841 5841 5841 5840 5840 5840 5840 5840 5839 5839 5839 5839 5840 5840 5840 5840 5840 5839 5838 5838 5838 5838 5838 5837 5837 5836 5836 5835 5835 5834 5834 5833
5832 5833 5833 5834 5834 5835 5835 5836 5836 5836 5836 5836 5836 5836 5835 5835 5835 5835 5835 5835 5835 5835 5835 5835 5836 5836 5835 5835 5834 5834 5833 5834 5833 5833 5833 5832 5832 5832 5831 5830 5829 5829 5828
5826 5826 5827 5828 5828 5829 5830 5830 5830 5831 5830 5830 5830 5830 5830 5830 5830 5830 5830 5830 5830 5830 5830 5831 5831 5831 5831 5830 5829 5829 5829 5829 5828 5828 5828 5827 5826 5826 5826 5825 5824 5824 5823
5820 5820 5821 5821 5822 5823 5824 5824 5824 5824 5824 5824 5824 5824 5824 5824 5824 5825 5825 5825 5825 5825 5825 5825 5825 5826 5826 5825 5825 5824 5824 5824 5823 5823 5822 5821 5821 5820 5820 5820 5819 5818 5818
5813 5814 5815 5815 5816 5816 5817 5817 5817 5818 5818 5818 5817 5817 5817 5818 5818 5818 5819 5819 5819 5819 5819 5819 5820 5820 5820 5820 5819 5819 5819 5818 5818 5817 5816 5816 5815 5815 5814 5814 5813 5812 5812
5807 5807 5808 5808 5809 5810 5810 5810 5811 5811 5811 5811 5811 5810 5811 5811 5811 5812 5812 5812 5813 5813 5813 5813 5813 5814 5814 5814 5813 5813 5813 5812 5811 5811 5810 5809 5809 5809 5808 5807 5807 5806 5805
5800 5800 5801 5802 5802 5802 5802 5803 5803 5803 5803 5803 5803 5803 5803 5803 5804 5804 5805 5806 5806 5806 5807 5807 5807 5807 5807 5807 5806 5806 5806 5806 5805 5805 5805 5804 5803 5802 5802 5801 5800 5799 5798
5793 5794 5794 5794 5795 5795 5795 5795 5795 5795 5795 5795 5795 5795 5795 5795 5796 5797 5798 5798 5799 5799 5800 5800 5800 5800 5800 5800 5800 5799 5799 5799 5799 5798 5798 5797 5797 5796 5795 5793 5792 5791 5790
5786 5786 5787 5787 5787 5787 5787 5787 5787 5787 5787 5787 5787 5787 5788 5788 5788 5789 5790 5790 5791 5792 5792 5792 5792 5792 5793 5792 5792 5792 5792 5791 5791 5791 5790 5790 5789 5789 5787 5786 5784 5783 5782
5778 5779 5779 5780 5779 5779 5779 5779 5779 5779 5780 5780 5780 5780 5780 5781 5781 5782 5782 5783 5784 5784 5784 5784 5785 5785 5785 5785 5785 5784 5784 5783 5783 5783 5782 5782 5781 5780 5779 5778 5776 5775 5774
5771 5771 5771 5772 5772 5771 5771 5771 5771 5772 5772 5772 5772 5772 5773 5773 5774 5775 5775 5775 5776 5776 5776 5776 5777 5777 5777 5777 5777 5777 5776 5776 5775 5775 5774 5773 5772 5771 5770 5769 5768 5766 5764
5763 5763 5764 5764 5764 5764 5764 5763 5764 5764 5764 5765 5765 5765 5765 5766 5766 5767 5767 5768 5768 5768 5768 5769 5769 5769 5769 5769 5768 5768 5768 5767 5766 5766 5765 5764 5763 5762 5761 5760 5758 5757 5755
5756 5756 5756 5756 5757 5757 5757 5756 5757 5757 5757 5757 5758 5758 5758 5758 5759 5759 5760 5760 5760 5760 5761 5761 5761 5761 5761 5761 5760 5760 5759 5758 5758 5757 5756 5755 5754 5753 5751 5750 5749 5747 5746
5748 5748 5748 5749 5749 5750 5750 5750 5750 5750 5750 5750 5750 5750 5750 5750 5751 5751 5752 5752 5752 5752 5753 5753 5752 5752 5752 5752 5752 5751 5751 5750 5749 5748 5747 5746 5745 5743 5742 5740 5739 5738 5736
5741 5741 5741 5742 5742 5743 5743 5743 5743 5743 5743 5742 5742 5742 5743 5743 5743 5743 5744 5744 5744 5744 5744 5744 5744 5744 5743 5743 5743 5742 5742 5741 5740 5738 5738 5737 5736 5734 5733 5731 5730 5728 5727